Previsão horária em Álmosd

Hoje, 20 Janeiro, Quarta-feira

Tempo Temperatura Precipitação Vento Pressão Humidade
00:00 -4°C° 0 mm 6 m/s 753 mmHg 91%
01:00 -4°C° 0 mm 6 m/s 752 mmHg 90%
02:00 -4°C° 1 mm 6 m/s 752 mmHg 92%
03:00 -4°C° 1 mm 6 m/s 752 mmHg 93%
04:00 -4°C° 1 mm 7 m/s 752 mmHg 94%
05:00 -3°C° 0.3 mm 6 m/s 752 mmHg 93%
06:00 -3°C° 0.3 mm 6 m/s 752 mmHg 92%
07:00 -3°C° 0 mm 6 m/s 752 mmHg 93%
08:00 -3°C° 0 mm 6 m/s 752 mmHg 94%
09:00 -2°C° 0 mm 6 m/s 753 mmHg 95%
10:00 -2°C° 0 mm 6 m/s 753 mmHg 96%
11:00 -2°C° 0 mm 6 m/s 753 mmHg 97%
12:00 -2°C° 0 mm 6 m/s 753 mmHg 97%
13:00 -1°C° 0 mm 5 m/s 753 mmHg 98%
14:00 -1°C° 0 mm 5 m/s 753 mmHg 98%
15:00 -1°C° 0 mm 5 m/s 753 mmHg 97%
16:00 -1°C° 0 mm 5 m/s 753 mmHg 97%
17:00 -1°C° 0 mm 5 m/s 753 mmHg 96%
18:00 -1°C° 0 mm 5 m/s 754 mmHg 95%
19:00 0°C° 0 mm 5 m/s 754 mmHg 94%
20:00 0°C° 0 mm 5 m/s 754 mmHg 93%
21:00 0°C° 0 mm 5 m/s 754 mmHg 92%
22:00 0°C° 0 mm 5 m/s 754 mmHg 90%
23:00 0°C° 0 mm 5 m/s 754 mmHg 89%

Amanhã, 21 Janeiro, Quinta-feira

Tempo Temperatura Precipitação Vento Pressão Humidade
00:00 0°C° 0 mm 5 m/s 754 mmHg 88%
01:00 0°C° 0 mm 5 m/s 753 mmHg 87%
02:00 0°C° 0 mm 5 m/s 753 mmHg 86%
03:00 0°C° 0 mm 5 m/s 753 mmHg 85%
04:00 0°C° 0 mm 5 m/s 753 mmHg 83%
05:00 0°C° 0 mm 5 m/s 753 mmHg 83%
06:00 0°C° 0 mm 5 m/s 753 mmHg 82%
07:00 0°C° 0 mm 5 m/s 752 mmHg 82%
08:00 0°C° 0 mm 5 m/s 752 mmHg 84%
09:00 +1°C° 0 mm 5 m/s 752 mmHg 86%
10:00 +1°C° 0 mm 5 m/s 752 mmHg 89%
11:00 +1°C° 0 mm 6 m/s 752 mmHg 89%
12:00 +2°C° 0 mm 6 m/s 751 mmHg 88%
13:00 +2°C° 0 mm 6 m/s 751 mmHg 88%
14:00 +2°C° 0 mm 6 m/s 751 mmHg 88%
15:00 +2°C° 0 mm 6 m/s 751 mmHg 87%
16:00 +1°C° 0 mm 5 m/s 750 mmHg 86%
17:00 +1°C° 0 mm 6 m/s 750 mmHg 85%
18:00 +1°C° 0 mm 6 m/s 750 mmHg 83%
19:00 0°C° 0 mm 7 m/s 750 mmHg 82%
20:00 +1°C° 0 mm 6 m/s 750 mmHg 82%
21:00 +1°C° 0 mm 6 m/s 750 mmHg 83%
22:00 +1°C° 0 mm 6 m/s 751 mmHg 83%
23:00 +1°C° 0 mm 6 m/s 751 mmHg 83%

Depois de amanhã, 22 Janeiro, Sexta-feira

Tempo Temperatura Precipitação Vento Pressão Humidade
00:00 +1°C° 0 mm 6 m/s 751 mmHg 82%
01:00 +1°C° 0 mm 6 m/s 750 mmHg 82%
02:00 +1°C° 0 mm 6 m/s 750 mmHg 81%
03:00 +1°C° 0 mm 6 m/s 750 mmHg 80%
04:00 +1°C° 0 mm 6 m/s 749 mmHg 78%
05:00 +1°C° 0 mm 6 m/s 749 mmHg 78%
06:00 +1°C° 0 mm 6 m/s 749 mmHg 78%
07:00 +1°C° 0 mm 6 m/s 748 mmHg 77%
08:00 +2°C° 0 mm 6 m/s 748 mmHg 78%
09:00 +3°C° 0 mm 7 m/s 748 mmHg 79%
10:00 +4°C° 0 mm 7 m/s 747 mmHg 79%
11:00 +4°C° 0 mm 7 m/s 747 mmHg 79%
12:00 +5°C° 0 mm 7 m/s 747 mmHg 80%
13:00 +6°C° 0 mm 7 m/s 746 mmHg 80%
14:00 +5°C° 0 mm 6 m/s 746 mmHg 81%
15:00 +5°C° 0 mm 6 m/s 745 mmHg 82%
16:00 +5°C° 0 mm 6 m/s 745 mmHg 83%
17:00 +5°C° 0.2 mm 7 m/s 745 mmHg 84%
18:00 +5°C° 0.2 mm 7 m/s 745 mmHg 85%
19:00 +5°C° 0.2 mm 8 m/s 745 mmHg 87%
20:00 +5°C° 0.1 mm 7 m/s 744 mmHg 86%
21:00 +4°C° 0.1 mm 7 m/s 744 mmHg 85%
22:00 +4°C° 0.1 mm 6 m/s 744 mmHg 84%
23:00 +4°C° 0 mm 6 m/s 744 mmHg 83%

23 Janeiro, Sábado

Tempo Temperatura Precipitação Vento Pressão Humidade
00:00 +4°C° 0 mm 6 m/s 744 mmHg 83%
01:00 +5°C° 0 mm 5 m/s 744 mmHg 82%
02:00 +4°C° 0 mm 6 m/s 743 mmHg 80%
03:00 +5°C° 0 mm 6 m/s 743 mmHg 79%
04:00 +5°C° 0 mm 6 m/s 742 mmHg 77%
05:00 +5°C° 0 mm 6 m/s 742 mmHg 76%
06:00 +5°C° 0 mm 6 m/s 742 mmHg 76%
07:00 +6°C° 0 mm 5 m/s 742 mmHg 75%
08:00 +7°C° 0 mm 6 m/s 741 mmHg 73%
09:00 +8°C° 0 mm 7 m/s 741 mmHg 71%
10:00 +7°C° 0 mm 8 m/s 741 mmHg 70%
11:00 +9°C° 0 mm 7 m/s 740 mmHg 68%
12:00 +10°C° 0 mm 7 m/s 740 mmHg 67%
13:00 +10°C° 0 mm 6 m/s 739 mmHg 66%
14:00 +9°C° 0 mm 5 m/s 739 mmHg 69%
15:00 +9°C° 0 mm 5 m/s 738 mmHg 72%
16:00 +8°C° 0 mm 4 m/s 738 mmHg 76%
17:00 +8°C° 0.2 mm 5 m/s 738 mmHg 77%
18:00 +7°C° 0.2 mm 5 m/s 738 mmHg 79%
19:00 +7°C° 0.2 mm 6 m/s 738 mmHg 81%
20:00 +7°C° 0 mm 5 m/s 738 mmHg 82%
21:00 +6°C° 0 mm 5 m/s 738 mmHg 84%
22:00 +5°C° 0 mm 4 m/s 738 mmHg 85%
23:00 +5°C° 0 mm 4 m/s 738 mmHg 86%

24 Janeiro, Domingo

Tempo Temperatura Precipitação Vento Pressão Humidade
00:00 +5°C° 0 mm 3 m/s 738 mmHg 87%
01:00 +5°C° 0 mm 3 m/s 737 mmHg 87%
02:00 +4°C° 0 mm 3 m/s 737 mmHg 88%
03:00 +4°C° 0 mm 3 m/s 737 mmHg 88%
04:00 +4°C° 0 mm 3 m/s 737 mmHg 88%
05:00 +5°C° 0 mm 2 m/s 737 mmHg 90%
06:00 +5°C° 0 mm 2 m/s 737 mmHg 91%
07:00 +5°C° 0 mm 2 m/s 737 mmHg 92%
08:00 +5°C° 0 mm 3 m/s 737 mmHg 88%
09:00 +5°C° 0 mm 4 m/s 737 mmHg 83%
10:00 +6°C° 0 mm 5 m/s 737 mmHg 79%
11:00 +6°C° 0 mm 5 m/s 737 mmHg 77%
12:00 +7°C° 0 mm 5 m/s 738 mmHg 75%
13:00 +7°C° 0 mm 6 m/s 738 mmHg 73%
14:00 +7°C° 0.1 mm 5 m/s 738 mmHg 77%
15:00 +6°C° 0.1 mm 5 m/s 738 mmHg 80%
16:00 +5°C° 0.1 mm 4 m/s 738 mmHg 84%
17:00 +4°C° 0 mm 4 m/s 739 mmHg 87%
18:00 +4°C° 0 mm 4 m/s 739 mmHg 89%
19:00 +3°C° 0 mm 4 m/s 740 mmHg 92%
20:00 +1°C° 0 mm 4 m/s 740 mmHg 91%
21:00 +2°C° 0 mm 3 m/s 740 mmHg 91%
22:00 +2°C° 0 mm 2 m/s 740 mmHg 90%
23:00 +2°C° 0 mm 2 m/s 739 mmHg 90%

25 Janeiro, Segunda-feira

Tempo Temperatura Precipitação Vento Pressão Humidade
00:00 +2°C° 0 mm 2 m/s 739 mmHg 91%
01:00 +2°C° 0 mm 2 m/s 739 mmHg 91%
02:00 +1°C° 0 mm 3 m/s 738 mmHg 91%
03:00 0°C° 0 mm 4 m/s 737 mmHg 90%
04:00 0°C° 0 mm 5 m/s 736 mmHg 90%
05:00 +1°C° 0.3 mm 6 m/s 735 mmHg 88%
06:00 +1°C° 0.3 mm 6 m/s 734 mmHg 87%
07:00 +1°C° 0.3 mm 6 m/s 734 mmHg 85%
08:00 +1°C° 1.4 mm 6 m/s 733 mmHg 86%
09:00 +1°C° 1.4 mm 6 m/s 732 mmHg 87%
10:00 0°C° 1.4 mm 7 m/s 731 mmHg 89%
11:00 +1°C° 1.7 mm 6 m/s 731 mmHg 90%
12:00 +1°C° 1.7 mm 5 m/s 731 mmHg 92%
13:00 +1°C° 1.7 mm 5 m/s 730 mmHg 94%
14:00 0°C° 1.1 mm 5 m/s 731 mmHg 95%
15:00 0°C° 1.1 mm 5 m/s 731 mmHg 96%
16:00 0°C° 1.1 mm 5 m/s 731 mmHg 96%
17:00 -2°C° 0.9 mm 6 m/s 732 mmHg 97%
18:00 -2°C° 0.9 mm 7 m/s 732 mmHg 97%
19:00 -4°C° 0.9 mm 8 m/s 733 mmHg 97%
20:00 -4°C° 0.8 mm 8 m/s 734 mmHg 95%
21:00 -4°C° 0.8 mm 8 m/s 734 mmHg 93%
22:00 -3°C° 0.8 mm 7 m/s 735 mmHg 91%
23:00 -3°C° 0.3 mm 7 m/s 736 mmHg 89%
Mostrar mais

Necessitamos do seu Consentimento

A Meteoprog e os seus Fornecedores de Serviços podem armazenar e aceder a dados pessoais como cookies, identificadores do dispositivo ou outras tecnologias semelhantes existentes no seu dispositivo e processar estes dados para personalizar conteúdos e anúncios, assim como funcionalidades nas redes sociais e análise de tráfego.

  • Armazenar e/ou aceder a informações no seu dispositivo

    Os cookies, identificadores do dispositivo ou outras informações podem ser armazenados ou acedidos no seu dispositivo, para os fins acima indicados.

  • Anúncios e conteúdos personalizados, medição de anúncios e conteúdos, dados sobre o público-alvo e desenvolvimento de produtos

    Os anúncios e os conteúdos podem ser personalizados com base num perfil. Podem ser adicionados dados adicionais para uma maior personalização dos anúncios e dos conteúdos. A eficácia dos anúncios e dos conteúdos pode ser medida. Podem ser obtidas informações sobre o público que visualizou os anúncios e os conteúdos. Estes dados podem ser usados para desenvolver ou melhorar sistemas, softwares ou a experiência do utilizador.

Ao clicar em "Eu concordo”, permitirá o uso de cookies, identificadores do dispositivo e web beacons mencionados ou outras tecnologias semelhantes. As configurações do navegador do seu dispositivo podem ser alteradas.

Para certos fins, podem ser invocados interesses legítimos ao invés de consentimento. Pode ler mais informação sobre este assunto na nossa Política de Privacidade e Cookies.